OpenBCM V1.08-5-g2f4a (Linux)

Packet Radio Mailbox

IZ3LSV

[San Dona' di P. JN]

 Login: GUEST





  
I0OJJ  > KEPS     11.12.24 09:20l 355 Lines 16897 Bytes #170 (0) @ AMSAT
BID : ORB24346.1
Read: GUEST
Subj: 2Line Orbital Elements 24346.AMSAT
Path: IZ3LSV<I0OJJ
Sent: 241211/0820z @:I0OJJ.ITA.EU [Rome] obcm1.08-6-g5b69
From: I0OJJ @ I0OJJ.ITA.EU (Gustavo)
To:   KEPS @ AMSAT
X-Info: This message was generated automatically


QST de W1STR

AMSAT Orbital Elements for Amateur Satellites in TLE Format
From Orbital Analysis Office
New England Sci-Tech STEM Education Center
Natick, MA December 11, 2024
To all radio amateurs


These element sets describe the orbits of various satellites 
in use by the amateur radio community. For details see:
www.amsat.org/keplerian-elements-formats/

A daily update of element sets is available at:
www.amsat.org/tle/daily-bulletin.txt
or without bulletin text:
www.amsat.org/tle/dailytle.txt


AO-07
1 07530U 74089B   24345.51584642 -.00000009  00000-0  23635-3 0  9998
2 07530 101.9898 341.8878 0012383 107.3233  10.6756 12.53683632291138
UO-11
1 14781U 84021B   24345.47942955  .00003458  00000-0  38029-3 0  9994
2 14781  97.7300 309.8619 0006922 204.3097 155.7794 14.88227539174693
AO-27
1 22825U 93061C   24345.43995302  .00000372  00000-0  15976-3 0  9994
2 22825  98.7656  39.8549 0007356 285.3215  74.7154 14.30678134627816
FO-29
1 24278U 96046B   24345.38800768  .00000044  00000-0  78014-4 0  9998
2 24278  98.5878 256.9766 0350984  91.9072 272.2295 13.53224745398261
NOAA-15
1 25338U 98030A   24345.75738937  .00000412  00000-0  18761-3 0  9991
2 25338  98.5535   9.0901 0010569 162.9300 197.2238 14.26822320382611
GO-32
1 25397U 98043D   24345.86604273  .00000277  00000-0  14008-3 0  9996
2 25397  98.9478 315.4612 0001852  43.4185 316.7139 14.24209237372787
ISS
1 25544U 98067A   24345.89384434  .00020419  00000-0  35868-3 0  9990
2 25544  51.6401 159.9155 0007261 326.4074 191.3286 15.50461525485951
NO-44
1 26931U 01043C   24345.42780919  .00000548  00000-0  23699-3 0  9996
2 26931  67.0505 236.1452 0006823 260.7475  99.2855 14.31536586211171
SO-50
1 27607U 02058C   24345.59930455  .00002896  00000-0  39204-3 0  9991
2 27607  64.5558  38.7215 0034530  24.0718 336.1991 14.80484173182429
CO-55
1 27844U 03031E   24345.45027231  .00000997  00000-0  45575-3 0  9998
2 27844  98.6778 350.0858 0009685 359.9852   0.1325 14.23694309112860
CO-57
1 27848U 03031J   24345.24622053  .00000851  00000-0  39663-3 0  9992
2 27848  98.6808 350.0212 0009878  17.0615 343.0893 14.23073163112571
RS-22
1 27939U 03042A   24345.78654957  .00003090  00000-0  50766-3 0  9997
2 27939  98.3074 145.1886 0010954 218.4876 254.5303 14.71354398134231
NOAA-18
1 28654U 05018A   24345.76902693  .00000426  00000-0  25002-3 0  9993
2 28654  98.8613  61.1656 0013235 283.0850  76.8845 14.13448915  8205
CO-58
1 28895U 05043F   24345.36856991  .00004780  00000-0  81123-3 0  9996
2 28895  98.2233 121.9352 0015456 157.7443 202.4436 14.69599502 20313
CO-65
1 32785U 08021C   24345.56038793  .00009246  00000-0  73029-3 0  9990
2 32785  97.7703 310.1051 0013091 111.6562 248.6058 15.00843350901896
AAUSAT2
1 32788U 08021F   24345.47176441  .00072472  00000-0  20191-2 0  9998
2 32788  97.6044 328.4031 0001239  56.0710 304.0651 15.36517404905194
CO-66
1 32791U 08021J   24345.81584944  .00018137  00000-0  10819-2 0  9995
2 32791  97.7102 317.0447 0007278  72.5026 287.6998 15.11183538903201
RS-30
1 32953U 08025A   24345.72577800  .00000065  00000-0  39501-3 0  9993
2 32953  82.5030 339.6795 0020664  80.4638 279.8776 12.43154959751069
PRISM
1 33493U 09002B   24345.46886398  .00088442  00000-0  21988-2 0  9999
2 33493  98.1778  50.3534 0007803 355.2497   4.8671 15.39934505865950
NOAA-19
1 33591U 09005A   24345.88803339  .00000373  00000-0  22338-3 0  9999
2 33591  99.0251  43.3708 0014302 151.0073 209.1896 14.13225982816581
SRMSAT
1 37841U 11058D   24345.60261841  .00000668  00000-0  21965-3 0  9990
2 37841  19.9700 169.6198 0011709 234.3746 172.6713 14.11307406679510
RS-40
1 38735U 12041C   24345.58526960  .00000020  00000-0  71889-4 0  9992
2 38735  82.4774  59.8905 0017573 191.3556 168.7129 12.42621810561080
ZACUBE-1
1 39417U 13066B   24345.61808240  .00010634  00000-0  10002-2 0  9996
2 39417  97.7569 298.2931 0045207 297.2488  62.4130 14.93290228597873
Delfi-N3xt
1 39428U 13066N   24345.32113989  .00015400  00000-0  17348-2 0  9991
2 39428  97.8366 259.5755 0089917 235.2495 124.0230 14.83779750592154
GOMX-1
1 39430U 13066Q   24345.73526983  .00004394  00000-0  70297-3 0  9994
2 39430  97.7045 209.3862 0137047  50.8672 310.4621 14.66126266588898
LO-74
1 39440U 13066AA  24345.58912321  .00009448  00000-0  10200-2 0  9995
2 39440  97.8310 286.0006 0067646  56.9624 303.8066 14.86879666594514
AO-73
1 39444U 13066AE  24345.64151970  .00013757  00000-0  11641-2 0  9999
2 39444  97.7425 302.0386 0040796 273.5426  86.1130 14.97494304597057
DTUSAT-2
1 40030U 14033W   24345.77985309  .00013469  00000-0  98830-3 0  9998
2 40030  98.0321 303.7463 0009266 320.0407  40.0134 15.03584098569697
EO-80
1 40032U 14033Y   24345.61001563  .00012268  00000-0  89943-3 0  9995
2 40032  98.0233 303.4680 0006443 246.6377 113.4170 15.03658591569136
XW-2C
1 40906U 15049H   24345.81738384  .00133613  00000-0  10960-2 0  9993
2 40906  97.4566   9.8290 0005352  42.3024 317.8650 15.70047667511882
LILACSAT-2
1 40908U 15049K   24345.81311697  .00015948  00000-0  50785-3 0  9999
2 40908  97.5195 356.4980 0012965  86.6583 273.6141 15.32569396510484
IO-86
1 40931U 15052B   24337.09180034  .00002217  00000-0  20975-3 0  9992
2 40931   5.9986 232.5457 0013173 302.5393  57.3463 14.78392648496340
ChubuSat-2
1 41338U 16012B   24345.37240224  .00011226  00000-0  62678-3 0  9995
2 41338  31.0017 333.7669 0011035 210.4459 149.5539 15.12237358484251
ChubuSat-3
1 41339U 16012C   24345.67020612  .00008917  00000-0  51130-3 0  9990
2 41339  31.0080 331.7610 0011110 215.5111 144.4789 15.11213259484266
Horyu-4
1 41340U 16012D   24345.47573579  .00029645  00000-0  11239-2 0  9991
2 41340  31.0003 259.6470 0009151 330.6657  29.3471 15.25659545485000
Lapan A3
1 41603U 16040E   24345.78886877  .00005723  00000-0  21382-3 0  9998
2 41603  97.1394 351.7556 0011116 184.1815 175.9334 15.27677828470162
Pratham
1 41783U 16059A   24345.44807158  .00002023  00000-0  37679-3 0  9991
2 41783  97.8296 356.5409 0032009 178.4562 181.6747 14.65759512438357
CAS-2T
1 41847U 16066G   24345.78119921  .00002178  00000-0  32117-3 0  9994
2 41847  98.4434  55.7432 0349659   5.1997 355.2675 14.42527778424944
CAS-4B
1 42759U 17034B   24345.80518884  .00041074  00000-0  96725-3 0  9990
2 42759  43.0144 300.1007 0013096 118.4997 241.7180 15.41172245414525
CAS-4A
1 42761U 17034D   24345.78622642  .00042412  00000-0  98791-3 0  9990
2 42761  43.0180 298.3491 0014117 127.2713 232.9433 15.41473776414539
D-SAT
1 42794U 17036AF  24345.43527180  .00014468  00000-0  89670-3 0  9997
2 42794  97.4949 321.4906 0099288 268.5111  90.4741 15.05766565407197
TechnoSat
1 42829U 17042E   24345.74567139  .00006852  00000-0  56329-3 0  9998
2 42829  97.3849 157.3264 0012265 195.9155 164.1685 14.99389416403604
AO-91
1 43017U 17073E   24345.49397818  .00015384  00000-0  84941-3 0  9990
2 43017  97.5482 215.1337 0193718  61.4475 300.6096 14.99332417382022
S-Net D
1 43186U 18014G   24345.69084315  .00009237  00000-0  59592-3 0  9994
2 43186  97.5755 244.6861 0011172 118.3216 241.9141 15.08455371375070
S-Net B
1 43187U 18014H   24345.29625243  .00010310  00000-0  66477-3 0  9996
2 43187  97.5759 244.2587 0012063 115.8969 244.3504 15.08435349375010
S-Net A
1 43188U 18014J   24345.49275287  .00010296  00000-0  66351-3 0  9992
2 43188  97.5767 244.5812 0011886 116.0263 244.2190 15.08455400375049
S-Net C
1 43189U 18014K   24345.29829488  .00010247  00000-0  66043-3 0  9993
2 43189  97.5784 244.3715 0013761 110.7999 249.4705 15.08433252373565
Ten-Koh
1 43677U 18084G   24345.71577490  .00006096  00000-0  51271-3 0  9996
2 43677  98.0779 144.9911 0013996 150.6910 209.5099 14.98582478333131
PO-101
1 43678U 18084H   24345.85503427  .00003189  00000-0  28368-3 0  9992
2 43678  98.0858 149.4371 0009013 161.4146 198.7405 14.96823200333337
QO-100
1 43700U 18090A   24345.52680351  .00000160  00000-0  00000-0 0  9997
2 43700   0.0155 293.3007 0002201   5.0833 356.8126  1.00270223 22120
MinXSS-2
1 43758U 18099A   24345.41109910  .00024594  00000-0  12392-2 0  9990
2 43758  97.5313  45.7306 0015079  72.1602 288.1275 15.17061099329424
AO-95
1 43770U 18099N   24345.10221597  .00018017  00000-0  10590-2 0  9997
2 43770  97.5223  39.6079 0013212 117.7720 242.4851 15.11663636329085
RANGE-B
1 43772U 18099Q   24345.13193632  .00033354  00000-0  15701-2 0  9990
2 43772  97.5004  44.1230 0004609  28.8749 331.2739 15.19456156329343
RANGE-A
1 43773U 18099R   24345.41365805  .00010171  00000-0  69974-3 0  9999
2 43773  97.4790  33.1454 0013555  92.8147 267.4632 15.06016794328925
MOVE-II
1 43780U 18099Y   24345.65094912  .00053513  00000-0  16714-2 0  9991
2 43780  97.4968  48.6027 0005197  80.8191 279.3639 15.32988488329787
SNUSat 2
1 43782U 18099AA  24345.39067710  .00013341  00000-0  82371-3 0  9998
2 43782  97.4903  37.9964 0014405  62.2959 297.9730 15.09927585329117
SnugLite
1 43784U 18099AC  24345.10205189  .00018195  00000-0  10635-2 0  9998
2 43784  97.4719  37.0299 0005107  73.0148 287.1642 15.11924786329166
ITASat 1
1 43786U 18099AE  24345.09944009  .00014035  00000-0  89122-3 0  9996
2 43786  97.4874  37.6728 0016892 110.0784 250.2265 15.08855614329053
EAGLET 1
1 43790U 18099AJ  24345.43987835  .00009920  00000-0  67849-3 0  9992
2 43790  97.5062  38.3998 0014014  90.0500 270.2333 15.06234375328771
ESEO
1 43792U 18099AL  24345.59867686  .00003678  00000-0  28978-3 0  9996
2 43792  97.4844  34.0415 0009968  59.6122 300.6087 15.01337863328652
CSIM
1 43793U 18099AM  24345.43031719  .00063084  00000-0  19957-2 0  9993
2 43793  97.5117  50.2338 0008892  56.1489 304.0597 15.32507464329592
